EW3156 Weather Reports


Display with metric or nautical units.
time (UTC)temp
F
wind
direction
speed
MPH
gust
MPH
rain 1hr
in
rain 24hr
in
rain mn
in
humidity
%
barometer
mb
20260903224532 92 150 0.0 1.0 0.00 0.00 0.00 63 1012.8
20260903223034 94 150 0.0 0.0 0.00 0.00 0.00 61 1012.9
20260903221531 94 150 0.0 1.0 0.00 0.00 0.00 59 1012.8
20260903220030 95 150 0.0 4.0 0.00 0.00 0.00 56 1012.6
20260903214533 95 102 0.0 4.0 0.00 0.00 0.00 55 1012.5
20260903213032 96 65 1.0 4.0 0.00 0.00 0.00 54 1012.5
20260903211524 97 74 1.0 7.0 0.00 0.00 0.00 53 1012.5
20260903210022 97 103 0.0 6.0 0.00 0.00 0.00 52 1012.8
20260903204521 97 84 1.0 10.0 0.00 0.00 0.00 52 1012.9
20260903203029 97 148 1.0 6.0 0.00 0.00 0.00 54 1013.0
20260903201528 97 228 2.0 6.0 0.00 0.00 0.00 53 1013.3
20260903200015 98 85 1.0 8.0 0.00 0.00 0.00 51 1013.6
20260903194516 97 30 2.0 9.0 0.00 0.00 0.00 51 1013.7
20260903193018 97 65 1.0 8.0 0.00 0.00 0.00 52 1014.1
20260903191510 97 86 1.0 6.0 0.00 0.00 0.00 53 1014.1
20260903190008 98 84 2.0 5.0 0.00 0.00 0.00 52 1014.3
20260903184506 97 58 1.0 5.0 0.00 0.00 0.00 54 1014.4
20260903183001 97 69 2.0 5.0 0.00 0.00 0.00 54 1014.5
20260903181558 97 350 2.0 6.0 0.00 0.00 0.00 53 1014.9
20260903174553 93 81 1.0 5.0 0.00 0.00 0.00 58 1015.1
20260903173054 93 90 0.0 3.0 0.00 0.00 0.00 61 1015.3
20260903171602 94 88 2.0 5.0 0.00 0.00 0.00 59 1015.5
20260903170050 93 92 0.0 1.0 0.00 0.00 0.00 62 1015.7
20260903164603 94 92 0.0 1.0 0.00 0.00 0.00 61 1015.9
20260903163049 95 84 0.0 6.0 0.00 0.00 0.00 58 1016.1
20260903161544 95 139 2.0 4.0 0.00 0.00 0.00 58 1016.2
20260903160039 94 92 0.0 6.0 0.00 0.00 0.00 60 1016.5
20260903154546 93 128 0.0 4.0 0.00 0.00 0.00 61 1016.5
20260903153033 93 88 1.0 3.0 0.00 0.00 0.00 61 1016.6
20260903151528 92 185 0.0 4.0 0.00 0.00 0.00 65 1016.5
20260903150026 90 80 0.0 3.0 0.00 0.00 0.00 69 1016.4
20260903144538 89 89 0.0 3.0 0.00 0.00 0.00 73 1016.3
20260903143022 88 85 2.0 3.0 0.00 0.00 0.00 73 1016.2
20260903141510 87 96 0.0 2.0 0.00 0.00 0.00 76 1016.2
20260903140006 85 96 0.0 3.0 0.00 0.00 0.00 79 1016.3
20260903134503 84 102 2.0 3.0 0.00 0.00 0.00 82 1016.3
20260903133103 82 109 1.0 3.0 0.00 0.00 0.00 84 1016.4
20260903131553 80 109 1.0 3.0 0.00 0.00 0.00 89 1016.4
20260903130050 78 110 0.0 2.0 0.00 0.00 0.00 93 1016.4
20260903124553 77 110 0.0 2.0 0.00 0.00 0.00 96 1016.3
20260903123044 76 110 0.0 0.0 0.00 0.00 0.00 98 1016.3
20260903121541 75 110 0.0 0.0 0.00 0.00 0.00 99 1016.1
20260903120053 75 110 0.0 1.0 0.00 0.00 0.00 98 1016.1
20260903114535 74 110 0.0 0.0 0.00 0.00 0.00 98 1016.1
20260903113100 75 110 0.0 0.0 0.00 0.00 0.00 98 1015.9
20260903111530 75 110 0.0 0.0 0.00 0.00 0.00 98 1015.7
20260903110030 75 110 0.0 0.0 0.00 0.00 0.00 98 1015.5
20260903104550 75 110 0.0 0.0 0.00 0.00 0.00 98 1015.4
20260903103032 75 110 0.0 0.0 0.00 0.00 0.00 97 1015.5
20260903101529 75 110 0.0 0.0 0.00 0.00 0.00 97 1015.4
20260903100035 75 110 0.0 0.0 0.00 0.00 0.00 97 1015.4
20260903094544 75 110 0.0 0.0 0.00 0.00 0.00 97 1015.5
20260903093029 75 110 0.0 0.0 0.00 0.00 0.00 97 1015.4
20260903091538 75 110 0.0 0.0 0.00 0.00 0.00 97 1015.4
20260903090023 76 110 0.0 0.0 0.00 0.00 0.00 96 1015.4
20260903084522 76 110 0.0 0.0 0.00 0.00 0.00 96 1015.4
20260903083022 76 110 0.0 0.0 0.00 0.00 0.00 96 1015.4
20260903081523 76 110 0.0 0.0 0.00 0.00 0.00 96 1015.3
20260903080019 76 110 0.0 0.0 0.00 0.00 0.00 95 1015.2
20260903074518 76 110 0.0 0.0 0.00 0.00 0.00 95 1015.3
20260903073030 76 110 0.0 0.0 0.00 0.00 0.00 95 1015.3
20260903071526 77 110 0.0 0.0 0.00 0.00 0.00 94 1015.3
20260903070015 77 110 0.0 0.0 0.00 0.00 0.00 94 1015.3
20260903064512 77 110 0.0 0.0 0.00 0.00 0.00 93 1015.3
20260903063012 77 110 0.0 0.0 0.00 0.00 0.00 93 1015.4
20260903061510 77 110 0.0 0.0 0.00 0.00 0.00 92 1015.5
20260903060009 78 110 0.0 0.0 0.00 0.00 0.00 92 1015.5
20260903054507 78 110 0.0 0.0 0.00 0.00 0.00 91 1015.4
20260903053005 78 110 0.0 0.0 0.00 0.00 0.00 90 1015.5
20260903051503 78 110 0.0 0.0 0.00 0.00 0.00 90 1015.5
20260903050002 79 110 0.0 0.0 0.00 0.00 0.00 89 1015.5
20260903044602 79 110 0.0 0.0 0.00 0.00 0.00 88 1015.5
20260903044502 79 110 0.0 0.0 0.00 0.00 0.00 88 1015.5
20260903043201 79 110 0.0 0.0 0.00 0.00 0.00 87 1015.5
20260903041605 79 110 0.0 0.0 0.00 0.00 0.00 86 1015.6
20260903040101 80 110 0.0 0.0 0.00 0.00 0.00 85 1015.5
20260903034557 80 110 0.0 0.0 0.00 0.00 0.00 85 1015.6
20260903033057 81 110 0.0 0.0 0.00 0.00 0.00 84 1015.5
20260903031559 81 110 0.0 0.0 0.00 0.00 0.00 83 1015.6
20260903030056 82 110 0.0 0.0 0.00 0.00 0.00 82 1015.6
20260903024559 82 110 0.0 0.0 0.00 0.00 0.00 80 1015.6
20260903023055 83 110 0.0 0.0 0.00 0.00 0.00 78 1015.5
20260903021554 83 110 0.0 0.0 0.00 0.00 0.00 77 1015.5
20260903020054 83 110 0.0 0.0 0.00 0.00 0.00 77 1015.4
20260903014555 84 110 0.0 1.0 0.00 0.00 0.00 76 1015.3
20260903013105 85 110 0.0 0.0 0.00 0.00 0.00 74 1015.0
20260903011552 86 110 0.0 0.0 0.00 0.00 0.00 73 1014.9
20260903010052 86 110 0.0 1.0 0.00 0.00 0.00 71 1014.7
20260903004554 87 110 0.0 1.0 0.00 0.00 0.00 70 1014.7
20260903003053 88 110 0.0 1.0 0.00 0.00 0.00 67 1014.7
20260903001550 89 110 0.0 0.0 0.00 0.00 0.00 66 1014.6
20260903000050 90 110 0.0 1.0 0.00 0.00 0.00 63 1014.6
20260902234607 91 110 0.0 1.0 0.00 0.00 0.00 61 1014.5
20260902233049 92 110 0.0 1.0 0.00 0.00 0.00 59 1014.5
20260902231552 93 110 0.0 2.0 0.00 0.00 0.00 57 1014.4
20260902230050 94 82 0.0 3.0 0.00 0.00 0.00 55 1014.4
20260902224606 94 65 2.0 6.0 0.00 0.00 0.00 54 1014.5